Location: Stoke Bliss
(52.2667°N, 2.5167°W)
Time: 19:08:07
(UTC+00:00)

Cosmos 2278 Rocket - Pass Details

Date: 03 March 2021
Orbit: 841 x 845 km, 71.0° (Epoch: 17 April)

Event Time Altitude Azimuth Distance (km) Brightness Sun altitude
Rises 20:21:28 0° 329° (NNW) 3,417 6.1 -23.1°
Reaches altitude 10° 20:23:57 10° 331° (NNW) 2,478 5.3 -23.5°
Maximum altitude 20:29:38 75° 57° (ENE) 880 2.1 -24.3°
Enters shadow 20:30:29 63° 115° (ESE) 944 2.1 -24.4°
